sat.trackr.live / text

‹ back to catalog

JILIN-1 GAOFEN 03D08

NORAD 54251 · 2022-155A

PAYLOAD ACTIVE UNKNOWN

§ Identity

Operator
Country
PRC
Launch date
2022-11-16
Launch site
JSC
Launch vehicle
Mass (kg)
RCS (m²)

External: N2YO · Heavens-Above · Gunter

§ Orbital elements

Epoch: 2026-05-25T04:22:33.230784Z

Period
92.20 min
Inclination
97.6169°
Eccentricity
0.0004121
Mean motion
15.61833226 rev/d
Perigee alt
379.6 km
Apogee alt
385.1 km
Semi-major
6,760.5 km
B*
5.6312e-4
RAAN
288.7892°
Arg perigee
88.1873°
Mean anomaly
271.9856°
Rev number
19,622

§ Raw data

JILIN-1 GAOFEN 03D081 54251U 22155A   26145.18232906  .00048900  00000+0  56312-3 0  99912 54251  97.6169 288.7892 0004121  88.1873 271.9856 15.61833226196229

JSON: /api/v1/satellites/54251 · /tle

For live sub-satellite position, see the globe view (requires WebGL).

§ Visibility from observer

Set your observer location to see the next 7 days of passes ≥ 10°. The values pass through the URL so the page stays shareable.

No JS? Fill the form by hand. The geolocation button needs JavaScript.